JA6CFI-13 Weather Reports


time (UTC)temp
F
wind
direction
speed
knots
gust
knots
rain 1hr
in
rain 24hr
in
rain mn
in
humidity
%
barometer
mb
20260504081120 65 272 7.8 9.6 0.00 0.06 0.00 60 1014.7
20260504060122 66 271 7.0 12.2 0.00 0.29 0.00 51 1014.3
20260504045621 68 247 11.3 14.8 0.00 0.63 0.00 49 1013.4
20260504044321 68 278 5.2 10.4 0.00 0.64 0.00 48 1013.4
20260504043020 67 225 3.5 5.2 0.00 0.66 0.00 53 1013.6
20260504041721 67 273 8.7 12.2 0.00 0.70 0.00 52 1013.2
20260504040420 67 289 6.1 9.6 0.00 0.70 0.00 52 1013.5
20260504035121 67 262 5.2 16.5 0.00 0.72 0.00 52 1013.4
20260504033821 67 275 2.6 10.4 0.00 0.72 0.00 55 1013.3
20260504032521 66 281 7.0 11.3 0.00 0.76 0.00 56 1013.3
20260504031221 66 240 7.0 13.0 0.00 0.78 0.00 55 1013.2
20260504025920 65 290 7.8 8.7 0.00 0.80 0.00 58 1013.1
20260504024620 65 258 8.7 13.9 0.00 0.80 0.00 58 1013.1
20260504023321 66 277 5.2 13.0 0.00 0.82 0.00 59 1013.1
20260504022021 65 278 6.1 9.6 0.00 0.82 0.00 58 1013.3
20260504021203 66 280 7.0 9.6 0.00 0.82 0.00 58 1013.3
20260504020720 65 256 6.1 13.9 0.00 0.82 0.00 59 1013.3
20260504015422 65 266 6.1 11.3 0.00 0.82 0.00 57 1013.2
20260504014121 64 259 4.3 13.0 0.00 0.82 0.00 57 1013.1
20260504012821 63 264 8.7 12.2 0.00 0.82 0.00 59 1013.2
20260504011520 63 257 6.1 13.0 0.00 0.82 0.00 62 1013.2
20260504011203 62 264 8.7 17.4 0.00 0.82 0.00 63 1013.1
20260504010220 62 257 8.7 13.0 0.00 0.82 0.00 64 1013.0
20260504004921 61 275 2.6 6.1 0.00 0.82 0.00 69 1012.9
20260504003621 61 262 6.1 12.2 0.00 0.82 0.00 69 1012.8
20260504002320 60 256 6.1 11.3 0.00 0.82 0.00 70 1012.5
20260504001020 60 273 7.0 13.0 0.00 0.82 0.00 70 1012.4
20260503235720 60 246 6.1 13.9 0.00 0.82 0.00 70 1012.1
20260503234420 60 241 9.6 18.2 0.00 0.82 0.00 71 1011.8
20260503233121 60 251 6.1 7.8 0.00 0.82 0.00 71 1011.3
20260503231821 60 259 3.5 12.2 0.00 0.82 0.00 73 1011.2
20260503230520 60 245 3.5 6.1 0.00 0.82 0.00 71 1010.9
20260503225220 60 238 7.0 11.3 0.00 0.82 0.00 72 1010.8
20260503223921 60 266 3.5 6.1 0.00 0.82 0.00 72 1010.6
20260503222621 59 244 2.6 4.3 0.00 0.82 0.00 73 1010.6
20260503221321 59 239 6.1 12.2 0.00 0.82 0.00 73 1010.3
20260503220020 59 245 4.3 8.7 0.00 0.82 0.00 73 1010.1
20260503214720 59 260 4.3 10.4 0.00 0.82 0.00 74 1009.9
20260503213421 60 259 4.3 4.3 0.00 0.82 0.00 75 1009.5
20260503212121 60 239 5.2 8.7 0.00 0.82 0.00 77 1009.0
20260503210820 60 240 7.0 12.2 0.00 0.82 0.00 78 1008.3
20260503205522 60 247 5.2 9.6 0.00 0.82 0.00 79 1008.0
20260503204221 61 235 5.2 10.4 0.00 0.82 0.00 79 1007.7
20260503202921 61 227 7.8 11.3 0.00 0.82 0.00 80 1007.6
20260503201620 60 233 6.1 7.8 0.00 0.82 0.00 80 1007.3
20260503200320 60 230 5.2 11.3 0.00 0.82 0.00 81 1007.3
20260503195022 60 233 5.2 8.7 0.00 0.82 0.00 81 1007.2
20260503194203 60 243 4.3 5.2 0.00 0.82 0.00 81 1007.2
20260503193721 61 244 6.1 10.4 0.00 0.82 0.00 81 1007.1
20260503192421 61 234 6.1 7.8 0.00 0.82 0.00 80 1006.9
20260503191120 60 258 4.3 8.7 0.00 0.82 0.00 80 1006.8
20260503185820 60 241 4.3 5.2 0.00 0.82 0.00 82 1006.8
20260503184520 60 239 3.5 8.7 0.00 0.82 0.00 82 1006.9
20260503183221 60 245 5.2 10.4 0.00 0.82 0.00 82 1006.9
20260503181921 61 235 4.3 7.8 0.00 0.82 0.00 83 1006.9
20260503180620 61 247 4.3 9.6 0.00 0.82 0.00 82 1006.8
20260503175320 61 242 7.8 11.3 0.00 0.82 0.00 82 1006.5
20260503174020 61 238 9.6 18.2 0.00 0.82 0.00 82 1006.7
20260503172720 61 225 6.1 8.7 0.00 0.82 0.00 82 1006.6
20260503171421 61 256 7.0 10.4 0.00 0.82 0.00 82 1006.4
20260503170121 61 240 8.7 17.4 0.00 0.82 0.00 83 1006.4
20260503150421 62 245 7.8 12.2 0.00 0.82 0.00 83 1005.4
20260503131202 62 224 1.7 4.3 0.00 0.82 0.82 84 1005.2
20260503130720 62 241 3.5 5.2 0.00 0.82 0.82 84 1005.1
20260503120220 63 239 5.2 8.7 0.00 0.82 0.82 86 1004.7